Home > Weather > Chhapra > Past weeks

Flag for India Weather for the Past 2 Weeks in Chhapra, Bihar, India

Now
106 °F

Scattered clouds.


Feels Like: 104 °F
Forecast: 79 / 107 °F
Wind: 7 mph from North

Location: Patna Airport

Current Time: Apr 30, 2016 at 5:28:00 PM

Latest Report: Apr 30, 2016 at 5:00 PM


Visibility: 3 mi

Pressure: 29.53 "Hg

Humidity: 18%

Dew Point: 54 °F

Location of ChhapraLocation

Historic Weather in Chhapra — Graph

°F

Chhapra Temperature Yesterday

Maximum temperature yesterday: 111 °F (at 1:30 PM)
Minimum temperature yesterday: 77 °F (at 5:30 AM)
Average temperature yesterday: 98 °F

High & Low Weather Summary for the Past Weeks

 TemperatureHumidityPressure
High111 °F (Apr 26, 2:30 PM)89% (Apr 16, 5:30 AM)29.77 "Hg (Apr 16, 5:30 AM)
Low73 °F (Apr 18, 5:30 AM)8% (Apr 24, 2:30 PM)29.39 "Hg (Apr 23, 3:30 PM)
Average96 °F32%29.59 "Hg
* Reported Apr 15 3:30 PM — Apr 30 4:00 PM, Chhapra, Weather by CustomWeather, © 2016

Note: Actual official high and low records may vary slightly from our data, if they occured in-between our weather recording intervals... More about our weather records

Advertising

Chhapra Weather History for the Previous 24 Hours

Scroll right to see more
 ConditionsComfort  
Time TempWeatherWind HumidityBarometerVisibility
4:00 PM
Sat, Apr 30
109 °FScattered clouds.9 mph16%29.59 "Hg3 mi
3:30 PM109 °FScattered clouds.9 mph16%29.59 "Hg3 mi
3:00 PM111 °FScattered clouds.9 mph15%29.59 "Hg3 mi
2:30 PM111 °FScattered clouds.12 mph15%29.59 "Hg3 mi
2:00 PM111 °FScattered clouds.12 mph9%29.62 "Hg3 mi
1:30 PM109 °FScattered clouds.9 mph9%29.62 "Hg3 mi
1:00 PM109 °FScattered clouds.9 mph9%29.62 "Hg3 mi
12:30 PM109 °FScattered clouds.14 mph8%29.62 "Hg3 mi
12:00 PM109 °FScattered clouds.14 mph8%29.62 "Hg3 mi
11:30 AM108 °FScattered clouds.12 mph10%29.65 "Hg3 mi
11:00 AM104 °FScattered clouds.10 mph15%29.65 "Hg3 mi
10:30 AM102 °FScattered clouds.9 mph16%29.65 "Hg3 mi
10:00 AM99 °FScattered clouds.9 mph19%29.68 "Hg3 mi
9:30 AM97 °FScattered clouds.7 mph20%29.68 "Hg3 mi
8:00 AM88 °FScattered clouds.9 mph31%29.65 "Hg2 mi
7:00 AM82 °FScattered clouds.No wind37%29.65 "Hg2 mi
6:30 AM81 °FScattered clouds.No wind39%29.65 "Hg2 mi
5:30 AM79 °FHaze.No wind42%29.65 "Hg2 mi
1:30 AM86 °FHaze.No wind31%29.62 "Hg2 mi
1:00 AM88 °FHaze.No wind33%29.62 "Hg2 mi
12:30 AM88 °FHaze.3 mph33%29.62 "Hg2 mi
12:00 AM88 °FHaze.3 mph31%29.62 "Hg2 mi
11:30 PM
Fri, Apr 29
88 °FHaze.7 mph31%29.65 "Hg2 mi
11:00 PM88 °FHaze.7 mph31%29.65 "Hg2 mi
10:30 PM90 °FHaze.6 mph29%29.65 "Hg2 mi
10:00 PM90 °FHaze.No wind29%29.65 "Hg2 mi
9:30 PM90 °FHaze.No wind29%29.65 "Hg2 mi
9:00 PM91 °FHaze.No wind28%29.65 "Hg2 mi
8:30 PM91 °FHaze.2 mph28%29.65 "Hg2 mi
8:00 PM95 °FHaze.3 mph25%29.62 "Hg3 mi
7:30 PM97 °FHaze.5 mph22%29.62 "Hg3 mi
7:00 PM99 °FHaze.5 mph22%29.62 "Hg3 mi
6:30 PM100 °FHaze.7 mph21%29.59 "Hg3 mi
6:00 PM104 °FHaze.8 mph17%29.59 "Hg3 mi
5:30 PM106 °FHaze.9 mph15%29.56 "Hg3 mi
5:00 PM108 °FHaze.13 mph13%29.56 "Hg3 mi
Weather by CustomWeather, © 2016

See weather overviewHow to use our weather pages